STARLINK-34153, 63967

Orbit data source: Space-Track

STARLINK-34153, 63967 is a payload satellite owned by SpaceX/Seattle (US) in LEO that was launched on Tue, 13 May 2025 UTC via an FALCON 9 launch vehicle from the Air Force Eastern Test Range (AFETR). Payload-class satellites include a variety of spacecraft equipped with specific instruments for various scientific and technological missions. These include communications satellites like Starlink; space stations such as the ISS; scientific satellites like the Hubble; Earth observation satellites from companies like Planet Labs, Umbra, and HawkEye 360; GPS; miniature CubeSats for education and research; and military/defense satellites.

Loading next visibility...
Identifier
63967, 2025-099R
Orbit
LEO
Last TLE update
19 hours ago
Origin
Manufacturer
SpaceX/Seattle
Mission
Operational spacecraft
Bus & Motor
STARLINK V2MO, Unknown motor
Mass
575 kg wet, ~530 kg dry
Launch date (UTC)
2025-05-13 (1 month ago)
Launch vehicle
FALCON 9
Launch site
Air Force Eastern Test Range (AFETR)
Object type
Payload
Rocket body
Debris
Shape & HBR
Unknown
Radar Cross Section
Large (>1 m²)

Expand to show TLE details & history

TLE from 19 hours ago
0 STARLINK-34153
1 63967U 25099R   25174.91668981  .00027446  00000-0  10037-2 0  9999
2 63967  42.9990 197.3047 0001482 274.4901 102.0835 15.27563244  5855
Epoch: 2025-06-23T22:00Z
TLE epoch observation values (Epoch: 2025-06-23T22:00:01.999Z)
Latitude
11.23922°
Longitude
-32.78839°
Altitude
482.325 km
Speed
7.627 km/s
True Right ascension
13h 58m 09s
True Declination
11° 10' 16"
Sunlit
Object was in daylight at epoch
Visualization orbit readout
Latitude
3.77618°
Longitude
-45.40933°
Altitude
482.263 km
Speed
7.626 km/s
Apparent Right ascension
14h 18m 25s
Apparent Declination
-18° 17' 27"
Sunlit
Object is in daylight
Visualization observer readout
Local Sidereal Time
03:58:55
Azimuth
52.36° ENE
Elevation
-59.397°
Doppler factor
1
Orbital elements
Apogee altitude
486.062 km
Perigee altitude
484.027 km
Semi-major axis
6,863.182 km
Eccentricity
0.00015
Inclination
42.999°
RAAN
197.3047°
Arg. of periapsis
274.4901°
True anomaly
Unknown
Mean anomaly
102.0835°
Eccentric anomaly
Unknown
Mean motion
3.81729 °/min
Orbital period
94.31 mins
BSTAR
0.0010037
Loading maneuver chart data...
Loading SW <> Apogee altitude chart data...
Loading historical data...
Loading historical data...
Loading historical data...
Loading historical data...
Loading historical data...
Loading historical data...
Loading historical data...

STARLINK-34153 Visibility forecast

Observer location: undefined°, undefined°

Span
Click to sort rows by Start time (UTC) header in descending order
Start Az.
Max El. time (UTC)
Max El. Az.
Max El.
End time (UTC)
End Az.
5 mins2025-06-25 03:56:01.619Z190.36° SSW2025-06-25 03:58:01.619Z153.309° SSE20.168°2025-06-25 04:01:01.619Z96.291° ESE
5 mins2025-06-25 05:35:01.619Z249.444° W2025-06-25 05:37:01.619Z113.153° SE44.957°2025-06-25 05:40:01.619Z72.207° E
5 mins2025-06-25 07:14:01.619Z290.676° WNW2025-06-25 07:16:01.619Z353.215° N38.007°2025-06-25 07:19:01.619Z72.871° E
5 mins2025-06-25 08:53:01.619Z290.915° WNW2025-06-25 08:55:01.619Z323.675° NNW43.894°2025-06-25 08:58:01.619Z103.082° ESE
5 mins2025-06-25 10:32:01.619Z258.321° W2025-06-25 10:34:01.619Z211.576° SW24.629°2025-06-25 10:37:01.619Z154.797° SSE
|